Showing default

ROCK, 60474

Orbit data source: Space-Track

ROCK, 60474 is an American payload satellite in SSO that was launched on Fri, 16 Aug 2024 UTC via an FALCON 9 launch vehicle from the Air Force Western Test Range (AFWTR). Payload-class satellites include a variety of spacecraft equipped with specific instruments for various scientific and technological missions. These include communications satellites like Starlink; space stations such as the ISS; scientific satellites like the Hubble; Earth observation satellites from companies like Planet Labs, Umbra, and HawkEye 360; GPS; miniature CubeSats for education and research; and military/defense satellites.

Loading next visibility...
Identifier
60474, 2024-149G
Orbit
SSO
Country
Flag of USUS
Related business
Manufacturer
ARRAY
Mission
Operational Commercial Technology
Bus & Motor
CUBESAT 1.5U, Unknown motor
Mass
1.83 kg wet, 1.83 kg dry
Launch date (UTC)
2024-08-16 (2 years ago)
Launch vehicle
FALCON 9
Launch site
Air Force Western Test Range (AFWTR)
Object type
Payload
Rocket body
Debris
Shape & HBR
Box, 0.1 m
Radar Cross Section
0.015 m², Small (<0.1 m²)

Expand to show TLE details & history
Last TLE update: 16 hours ago

TLE from 16 hours ago
0 ROCK
1 60474U 24149G   26111.80462544  .00013396  00000-0  35966-3 0  9999
2 60474  97.3769 194.8219 0003169  99.2469 260.9135 15.38056497 93596
Epoch: 2026-04-21T19:18Z
TLE epoch observation values (Epoch: 2026-04-21T19:18:39.638Z)
Latitude
0.00006°
Longitude
55.28159°
Altitude
455.315 km
Speed
7.639 km/s
True Right ascension
12h 59m 17s
True Declination
0° 00' 00"
Sunlit
Object was in full shadow at epoch
Visualization orbit readout
Latitude
Unknown
Longitude
Unknown
Altitude
Unknown
Speed
Unknown
Apparent Right ascension
Unknown
Apparent Declination
Unknown
Sunlit
N/A
Visualization observer readout
Local Sidereal Time
18:11:50
Azimuth
Unknown
Elevation
Unknown
Doppler factor
Unknown
Orbital elements
Apogee altitude
450.961 km
Perigee altitude
446.634 km
Semi-major axis
6,826.934 km
Eccentricity
0.00032
Inclination
97.3769°
RAAN
194.8219°
Arg. of periapsis
99.2469°
True anomaly
260.87764°
Mean anomaly
260.9135°
Eccentric anomaly
260.89557°
Mean motion
3.84773 °/min
Orbital period
93.56 mins
BSTAR
0.00035966
Loading maneuver chart data...
Computing Atmospheric mass density...
Loading historical data...
Loading historical data...
Loading historical data...
Loading historical data...
Loading historical data...
Loading historical data...
Loading historical data...

Documentation

Showing up to 5 results
|